Weather History for Mosby, MO

Change the Weather History Date:

Saturday, September 21, 2013

  Actual Average (KMKC) Record (KMKC)
Temperature  
Mean Temperature 58 °F -  
Max Temperature 71 °F 75 °F 90 °F (2005)
Min Temperature 44 °F 55 °F 42 °F (1999)
Degree Days  
Heating Degree Days 8    
Growing Degree Days 8 (Base 50)    
Moisture  
Dew Point 49 °F    
Average Humidity 77    
Maximum Humidity 100    
Minimum Humidity 38    
Precipitation  
Precipitation 0.00 in - - ()
Sea Level Pressure  
Sea Level Pressure 29.99 in    
Wind  
Wind Speed 0 mph (SW)    
Max Wind Speed 5 mph    
Max Gust Speed -    
Visibility 10 miles    
Events      
Averages and records for this station are not official NWS values.
T = Trace of Precipitation, MM = Missing Value Source: NWS Daily Summary

Daily Weather History Graph

Daily Weather History Graph

Search for Another Location

Airport:

Trip Planner

Search our weather history database for the weather conditions in past years. The results will help you decide how hot, cold, wet, or windy it might be!

Date:

Astronomy

Sep. 21, 2013 Rise Set
Actual Time 7:04 AM CDT 7:15 PM CDT
Civil Twilight 6:37 AM CDT 7:42 PM CDT
Nautical Twilight 6:06 AM CDT 8:13 PM CDT
Astronomical Twilight 5:34 AM CDT 8:45 PM CDT
Moon 8:27 PM CDT 9:22 AM CDT
Length of Visible Light 13h 04m
Length of Day
12h 11m
Waning Gibbous, 94% of the Moon is Illuminated
Sep 21
Waning Gibbous
Sep 26
Last Quarter
Oct 4
New
Oct 11
First Quarter
Oct 18
Full

Hourly Weather History & Observations

Time (CDT) Temp. Windchill Dew Point Humidity Pressure Visibility Wind Dir Wind Speed Gust Speed Precip Events Conditions
12:15 AM 51.8 °F - 51.8 °F 100% 30.00 in 10.0 mi Calm Calm - N/A   Clear
12:35 AM 51.8 °F - 51.8 °F 100% 30.00 in 10.0 mi Calm Calm - N/A   Unknown
12:55 AM 50.0 °F - 50.0 °F 100% 30.00 in 10.0 mi Calm Calm - N/A   Clear
1:15 AM 51.8 °F - 51.8 °F 100% 30.00 in 10.0 mi Calm Calm - N/A   Clear
1:35 AM 50.0 °F - 50.0 °F 100% 30.00 in 10.0 mi Calm Calm - N/A   Clear
1:55 AM 50.0 °F - 50.0 °F 100% 30.00 in 10.0 mi Calm Calm - N/A   Clear
2:15 AM 50.0 °F - 50.0 °F 100% 30.01 in 7.0 mi Calm Calm - N/A   Clear
2:35 AM 50.0 °F - 50.0 °F 100% 30.01 in 10.0 mi Calm Calm - N/A   Clear
2:55 AM 50.0 °F - 50.0 °F 100% 30.00 in 7.0 mi Calm Calm - N/A   Clear
3:15 AM 48.2 °F - 48.2 °F 100% 30.00 in 10.0 mi Calm Calm - N/A   Unknown
3:35 AM 48.2 °F - 48.2 °F 100% 30.00 in 10.0 mi Calm Calm - N/A   Clear
3:55 AM 46.4 °F - 46.4 °F 100% 30.00 in 10.0 mi Calm Calm - N/A   Clear
4:15 AM 46.4 °F - 46.4 °F 100% 30.00 in 7.0 mi Calm Calm - N/A   Clear
4:35 AM 46.4 °F - 46.4 °F 100% 30.01 in 5.0 mi Calm Calm - N/A   Clear
4:55 AM 46.4 °F - 46.4 °F 100% 30.01 in 10.0 mi Calm Calm - N/A   Clear
5:15 AM 46.4 °F - 46.4 °F 100% 30.01 in 3.0 mi Calm Calm - N/A   Clear
5:35 AM 46.4 °F 45.2 °F 46.4 °F 100% 30.02 in 10.0 mi SW 3.5 mph - N/A   Clear
5:55 AM 46.4 °F - 46.4 °F 100% 30.02 in 10.0 mi Calm Calm - N/A   Clear
6:15 AM 46.4 °F - 46.4 °F 100% 30.02 in 10.0 mi Calm Calm - N/A   Clear
6:35 AM 46.4 °F - 46.4 °F 100% 30.03 in 10.0 mi Calm Calm - N/A   Clear
6:55 AM 44.6 °F - 44.6 °F 100% 30.03 in 10.0 mi Calm Calm - N/A   Clear
7:15 AM 44.6 °F - 44.6 °F 100% 30.04 in 10.0 mi Calm Calm - N/A   Unknown
7:35 AM 44.6 °F - 44.6 °F 100% 30.04 in 10.0 mi Calm Calm - N/A   Unknown
7:55 AM 46.4 °F - 46.4 °F 100% 30.05 in 10.0 mi Calm Calm - N/A   Clear
8:15 AM 46.4 °F - 46.4 °F 100% 30.05 in 10.0 mi Calm Calm - N/A   Clear
8:35 AM 50.0 °F - 50.0 °F 100% 30.05 in 10.0 mi Calm Calm - N/A   Clear
8:55 AM 51.8 °F - 50.0 °F 94% 30.05 in 10.0 mi Calm Calm - N/A   Clear
9:15 AM 53.6 °F - 51.8 °F 94% 30.05 in 10.0 mi Calm Calm - N/A   Clear
9:35 AM 55.4 °F - 50.0 °F 82% 30.06 in 10.0 mi Calm Calm - N/A   Clear
9:55 AM 55.4 °F - 50.0 °F 82% 30.05 in 10.0 mi Calm Calm - N/A   Clear
10:15 AM 59.0 °F - 50.0 °F 72% 30.06 in 10.0 mi Calm Calm - N/A   Clear
10:35 AM 60.8 °F - 48.2 °F 63% 30.05 in 10.0 mi Calm Calm - N/A   Clear
10:55 AM 60.8 °F - 50.0 °F 68% 30.05 in 10.0 mi Calm Calm - N/A   Clear
11:15 AM 62.6 °F - 46.4 °F 55% 30.06 in 10.0 mi Calm Calm - N/A   Clear
11:35 AM 64.4 °F - 46.4 °F 52% 30.05 in 10.0 mi SSE 3.5 mph - N/A   Clear
11:55 AM 64.4 °F - 46.4 °F 52% 30.05 in 10.0 mi Calm Calm - N/A   Clear
12:15 PM 66.2 °F - 46.4 °F 49% 30.05 in 10.0 mi Calm Calm - N/A   Clear
12:35 PM 64.4 °F - 44.6 °F 49% 30.04 in 10.0 mi Calm Calm - N/A   Clear
12:55 PM 68.0 °F - 44.6 °F 43% 30.03 in 10.0 mi Calm Calm - N/A   Clear
1:15 PM 68.0 °F - 44.6 °F 43% 30.02 in 10.0 mi Calm Calm - N/A   Clear
1:35 PM 69.8 °F - 44.6 °F 40% 30.02 in 10.0 mi Calm Calm - N/A   Clear
1:55 PM 68.0 °F - 44.6 °F 43% 30.01 in 10.0 mi SE 3.5 mph - N/A   Clear
2:15 PM 69.8 °F - 44.6 °F 40% 30.00 in 10.0 mi Calm Calm - N/A   Clear
2:35 PM 69.8 °F - 44.6 °F 40% 29.99 in 7.0 mi Calm Calm - N/A   Clear
2:55 PM 69.8 °F - 44.6 °F 40% 29.99 in 10.0 mi Calm Calm - N/A   Clear
3:15 PM 69.8 °F - 44.6 °F 40% 29.98 in 10.0 mi Calm Calm - N/A   Clear
3:35 PM 71.6 °F - 44.6 °F 38% 29.97 in 10.0 mi NW 3.5 mph - N/A   Clear
3:55 PM 71.6 °F - 44.6 °F 38% 29.97 in 10.0 mi West 3.5 mph - N/A   Clear
4:15 PM 71.6 °F - 46.4 °F 41% 29.97 in 10.0 mi ESE 3.5 mph - N/A   Clear
4:35 PM 71.6 °F - 46.4 °F 41% 29.96 in 10.0 mi NW 3.5 mph - N/A   Clear
4:55 PM 71.6 °F - 46.4 °F 41% 29.95 in 10.0 mi Calm Calm - N/A   Unknown
5:15 PM 71.6 °F - 46.4 °F 41% 29.95 in 10.0 mi SW 4.6 mph - N/A   Clear
5:35 PM 71.6 °F - 46.4 °F 41% 29.95 in 10.0 mi SSW 3.5 mph - N/A   Clear
5:55 PM 71.6 °F - 46.4 °F 41% 29.94 in 10.0 mi Calm Calm - N/A   Clear
6:15 PM 71.6 °F - 46.4 °F 41% 29.93 in 10.0 mi Calm Calm - N/A   Unknown
6:35 PM 71.6 °F - 46.4 °F 41% 29.93 in 10.0 mi Calm Calm - N/A   Unknown
6:55 PM 69.8 °F - 51.8 °F 53% 29.93 in 10.0 mi Calm Calm - N/A   Clear
7:15 PM 68.0 °F - 51.8 °F 56% 29.92 in 10.0 mi Calm Calm - N/A   Clear
7:35 PM 64.4 °F - 55.4 °F 73% 29.92 in 10.0 mi Calm Calm - N/A   Clear
7:55 PM 62.6 °F - 55.4 °F 77% 29.93 in 10.0 mi Calm Calm - N/A   Clear
8:15 PM 60.8 °F - 55.4 °F 82% 29.93 in 10.0 mi Calm Calm - N/A   Clear
8:35 PM 60.8 °F - 55.4 °F 82% 29.93 in 10.0 mi Calm Calm - N/A   Clear
8:55 PM 59.0 °F - 57.2 °F 94% 29.94 in 10.0 mi Calm Calm - N/A   Clear
9:15 PM 57.2 °F - 57.2 °F 100% 29.94 in 10.0 mi Calm Calm - N/A   Clear
9:35 PM 55.4 °F - 55.4 °F 100% 29.95 in 10.0 mi Calm Calm - N/A   Clear
9:55 PM 55.4 °F - 55.4 °F 100% 29.95 in 10.0 mi Calm Calm - N/A   Clear
10:15 PM 55.4 °F - 55.4 °F 100% 29.95 in 10.0 mi Calm Calm - N/A   Clear
10:35 PM 53.6 °F - 53.6 °F 100% 29.95 in 10.0 mi Calm Calm - N/A   Clear
10:55 PM 53.6 °F - 53.6 °F 100% 29.95 in 10.0 mi Calm Calm - N/A   Clear
11:15 PM 53.6 °F - 53.6 °F 100% 29.95 in 10.0 mi Calm Calm - N/A   Unknown
11:35 PM 53.6 °F - 53.6 °F 100% 29.95 in 10.0 mi Calm Calm - N/A   Unknown
11:55 PM 53.6 °F - 53.6 °F 100% 29.95 in 10.0 mi Calm Calm - N/A   Clear